Regional Weather Roundup
Issued by NWS

Home | Current Version | Previous Version | Graphics & Text | Print | Product List | Glossary On
Versions: 1 2 3 4 5 6 7 8 9 10 11 12 13 14 15 16 17 18 19 20 21 22 23 24 25 26 27 28 29 30 31 32 33 34 35 36 37 38 39 40 41 42 43 44 45 46 47 48 49 50
000
ASUS43 KDMX 260101
RWRIA

WEATHER ROUNDUP FOR IOWA
NATIONAL WEATHER SERVICE DES MOINES IA
800 PM CDT MON SEP 25 2017

NOTE: "FAIR" INDICATES FEW OR NO CLOUDS BELOW 12,000 FEET WITH NO
SIGNIFICANT WEATHER AND/OR OBSTRUCTIONS TO VISIBILITY.

* - THESE STATIONS ARE NOT NWS STATIONS...THUS NOT UNDER NWS
QUALITY CONTROL.  THEY ALSO DO NOT REPORT WEATHER SUCH
AS PRECIPITATION OR FOG.

IAZ001>003-012>014-020>022-031>034-043>046-260200-
   NORTHWEST IOWA

CITY           SKY/WX    TMP DP  RH WIND       PRES   REMARKS
CARROLL *      CLOUDY    66  66 100 N8        29.94S
CHEROKEE *     DRIZZLE   58  58 100 N8        29.97F
DENISON *      CLOUDY    61  61 100 N7        29.97R
LE MARS *      CLOUDY    55  55 100 N6        29.98F
ORANGE CITY *  DRIZZLE   55  55 100 N10       29.97F
SHELDON *      CLOUDY    55  55 100 N6        29.98S
SIOUX CITY     CLOUDY    57  56  96 N9        29.98S
SPENCER        LGT RAIN  58  56  93 NE6       30.00R
STORM LAKE *   CLOUDY    57  57 100 N10       29.97S
$$

IAZ055>058-069>071-079>083-090>094-260200-
   SOUTHWEST IOWA

CITY           SKY/WX    TMP DP  RH WIND       PRES   REMARKS
ATLANTIC *     CLOUDY    68  66  94 CALM      29.92R
AUDUBON *      CLOUDY    66  63  88 CALM      29.94R
CLARINDA *     MOCLDY    68  68 100 NW7       29.92R
COUNCIL BLFS * DRIZZLE   61  61 100 N7        29.95R
CRESTON *      CLOUDY    66  66 100 E7        29.93R
HARLAN  *      CLOUDY    66  66 100 N6        29.97R
LAMONI         CLEAR     68  67  96 NE6       29.92S
RED OAK *      DRIZZLE   68  68 100 NW8       29.93R
SHENANDOAH *   LGT RAIN  68  66  94 W7        29.94R
$$

IAZ047>049-059>061-072>074-084-260200-
   CENTRAL IOWA

CITY           SKY/WX    TMP DP  RH WIND       PRES   REMARKS
AMES           LGT RAIN  66  66 100 NE3       29.92F
ANKENY *       DRIZZLE   66  66 100 CALM      29.95R
BOONE *        CLOUDY    66  64  94 E3        29.92F
CHARITON *     MOCLDY    68  64  88 N7        29.94R
DES MOINES     TSTM      67  66  97 CALM      29.93R FOG
GRINNELL*      MOCLDY    68  63  84 NW7       29.96R
KNOXVILLE *    CLOUDY    68  64  88 N6        29.92S
MARSHALLTOWN   CLOUDY    67  66  97 W7        29.95R
NEWTON *       CLOUDY    66  64  94 N9G17     29.93F
PELLA *        PTCLDY    69  64  82 N6        29.94S
PERRY *        RAIN      66  66  99 CALM      29.94R
$$

IAZ004>006-015-016-023>025-035-036-260200-
   NORTH CENTRAL IOWA

CITY           SKY/WX    TMP DP  RH WIND       PRES   REMARKS
ALGONA *       CLOUDY    59  59 100 N7        29.97S
CLARION *      CLOUDY    64  64 100 NE3       29.95S
ESTHERVILLE    CLOUDY    56  56 100 N9        29.99R
FORT DODGE *   LGT RAIN  63  62  97 N6        29.95R
MASON CITY     MOCLDY    64  63  96 CALM      29.98R
FOREST CITY *  LGT RAIN  63  61  94 N3        29.96S
WEBSTER CITY * DRIZZLE   64  64 100 NE3       29.92R
IOWA FALLS *   LGT RAIN  65  64  98 CALM      29.96S
$$

IAZ007>011-017>019-026>030-037>042-050>054-066-260200-
   NORTHEAST IOWA

CITY           SKY/WX    TMP DP  RH WIND       PRES   REMARKS
CEDAR RAPIDS   PTCLDY    78  64  61 S5        29.89R HX  80
CHARLES CITY * HVY RAIN  66  66 100 N7        29.96R
CLINTON *      PTCLDY   N/A N/A N/A SW3       29.92R
DECORAH *      DRIZZLE   66  66 100 NW5       29.97R
DUBUQUE        CLEAR     71  65  81 NE10      29.92S
MONTICELLO *   CLOUDY    77  61  57 SE12G22   29.90R
OELWEIN *      DRIZZLE   68  68 100 N8        29.97R
WATERLOO       CLOUDY    66  65  96 NW5       29.93R
$$

IAZ064-065-067-068-078-260200-
   EAST CENTRAL IOWA

CITY           SKY/WX    TMP DP  RH WIND       PRES   REMARKS
DAVENPORT      CLOUDY    73  66  78 S3        29.92F
IOWA CITY      CLOUDY    82  62  50 S10       29.90S HX  83
MUSCATINE *    PTCLDY    79  64  61 S7        29.90S HX  81
QUAD CITIES    CLOUDY    73  69  87 CALM      29.89S
$$

IAZ062-063-075>077-085>089-095>099-260200-
   SOUTHEAST IOWA

CITY           SKY/WX    TMP DP  RH WIND       PRES   REMARKS
BURLINGTON     PTCLDY    74  65  73 CALM      29.90S
FAIRFIELD *    CLOUDY    79  63  57 SE3       29.90S HX  80
FORT MADISON * CLEAR     70  68  94 CALM      29.92R
KEOKUK *       CLEAR     79  64  61 S5        29.90R HX  81
OSKALOOSA *      N/A     72  64  74 N9        29.92R
OTTUMWA        CLOUDY    78  65  63 CALM      29.90R HX  80
WASHINGTON *   CLOUDY    79  63  57 S6        29.91S HX  80
$$

ABBREVIATIONS USED IN REMARKS
   TC - TEMPERATURES IN CELSIUS
  WCI - WIND CHILL INDEX
   HX - HEAT INDEX
  VSB - VISIBILITY
$$





USA.gov is the U.S. government's official web portal to all federal, state and local government web resources and services.